| time (UTC) | temp F | wind direction | speed MPH | gust MPH | rain 1hr in | rain 24hr in | rain mn in | humidity % | barometer mb |
| 20260507194504 | 68 | 358 | 10.0 | 23.0 | 0.00 | 0.00 | 0.00 | 67 | 1017.8 |
| 20260507194004 | 68 | 357 | 7.0 | 23.0 | 0.00 | 0.00 | 0.00 | 70 | 1018.2 |
| 20260507193504 | 67 | 3 | 6.0 | 13.0 | 0.00 | 0.00 | 0.00 | 71 | 1018.3 |
| 20260507193025 | 67 | 353 | 8.0 | 13.0 | 0.00 | 0.00 | 0.00 | 70 | 1018.2 |
| 20260507192504 | 67 | 354 | 8.0 | 14.0 | 0.00 | 0.00 | 0.00 | 71 | 1018.6 |
| 20260507192004 | 67 | 12 | 6.0 | 14.0 | 0.00 | 0.00 | 0.00 | 73 | 1018.3 |
| 20260507191504 | 66 | 17 | 5.0 | 11.0 | 0.00 | 0.00 | 0.00 | 74 | 1018.3 |
| 20260507191004 | 66 | 14 | 6.0 | 10.0 | 0.00 | 0.00 | 0.00 | 72 | 1018.6 |
| 20260507190504 | 66 | 12 | 5.0 | 10.0 | 0.00 | 0.00 | 0.00 | 71 | 1018.7 |
| 20260507190005 | 67 | 13 | 5.0 | 10.0 | 0.00 | 0.00 | 0.00 | 69 | 1018.8 |
| 20260507185504 | 67 | 14 | 5.0 | 12.0 | 0.00 | 0.00 | 0.00 | 69 | 1018.8 |
| 20260507185004 | 67 | 3 | 5.0 | 12.0 | 0.00 | 0.00 | 0.00 | 69 | 1018.9 |
| 20260507184504 | 67 | 4 | 6.0 | 13.0 | 0.00 | 0.00 | 0.00 | 69 | 1018.9 |
| 20260507184004 | 67 | 3 | 7.0 | 14.0 | 0.00 | 0.00 | 0.00 | 69 | 1019.1 |
| 20260507183504 | 67 | 359 | 6.0 | 16.0 | 0.00 | 0.00 | 0.00 | 70 | 1019.1 |
| 20260507183004 | 67 | 9 | 5.0 | 16.0 | 0.00 | 0.00 | 0.00 | 72 | 1019.2 |
| 20260507182504 | 66 | 6 | 6.0 | 12.0 | 0.00 | 0.00 | 0.00 | 72 | 1019.4 |
| 20260507182004 | 66 | 5 | 6.0 | 12.0 | 0.00 | 0.00 | 0.00 | 72 | 1019.3 |
| 20260507181504 | 66 | 8 | 6.0 | 12.0 | 0.00 | 0.00 | 0.00 | 72 | 1019.3 |
| 20260507181004 | 65 | 4 | 6.0 | 12.0 | 0.00 | 0.00 | 0.00 | 72 | 1019.4 |
| 20260507180504 | 65 | 16 | 6.0 | 12.0 | 0.00 | 0.00 | 0.00 | 73 | 1019.2 |
| 20260507180004 | 65 | 22 | 6.0 | 12.0 | 0.00 | 0.00 | 0.00 | 73 | 1018.9 |
| 20260507175504 | 64 | 9 | 7.0 | 16.0 | 0.00 | 0.00 | 0.00 | 74 | 1018.7 |
| 20260507175004 | 64 | 357 | 8.0 | 16.0 | 0.00 | 0.00 | 0.00 | 74 | 1018.8 |
| 20260507174525 | 64 | 1 | 7.0 | 14.0 | 0.00 | 0.00 | 0.00 | 75 | 1018.9 |
| 20260507174024 | 64 | 21 | 7.0 | 14.0 | 0.00 | 0.00 | 0.00 | 76 | 1019.1 |
| 20260507173504 | 63 | 25 | 7.0 | 14.0 | 0.00 | 0.00 | 0.00 | 77 | 1018.8 |
| 20260507173004 | 63 | 26 | 6.0 | 13.0 | 0.00 | 0.00 | 0.00 | 77 | 1018.7 |
| 20260507172504 | 63 | 11 | 7.0 | 13.0 | 0.00 | 0.00 | 0.00 | 78 | 1018.9 |
| 20260507172025 | 62 | 19 | 7.0 | 14.0 | 0.00 | 0.00 | 0.00 | 78 | 1018.8 |
| 20260507171504 | 62 | 36 | 7.0 | 14.0 | 0.00 | 0.00 | 0.00 | 78 | 1018.9 |
| 20260507171025 | 62 | 34 | 6.0 | 14.0 | 0.00 | 0.00 | 0.00 | 79 | 1019.2 |
| 20260507170504 | 62 | 19 | 5.0 | 14.0 | 0.00 | 0.00 | 0.00 | 80 | 1019.4 |
| 20260507170004 | 62 | 356 | 5.0 | 13.0 | 0.00 | 0.00 | 0.00 | 79 | 1019.7 |
| 20260507165504 | 62 | 359 | 5.0 | 11.0 | 0.00 | 0.00 | 0.00 | 80 | 1019.7 |
| 20260507165004 | 62 | 19 | 6.0 | 14.0 | 0.00 | 0.00 | 0.00 | 81 | 1019.9 |
| 20260507164525 | 62 | 21 | 6.0 | 14.0 | 0.00 | 0.00 | 0.00 | 81 | 1019.7 |
| 20260507164003 | 62 | 4 | 7.0 | 17.0 | 0.00 | 0.00 | 0.00 | 81 | 1019.4 |
| 20260507163504 | 62 | 354 | 7.0 | 17.0 | 0.00 | 0.00 | 0.00 | 82 | 1019.7 |
| 20260507163003 | 62 | 343 | 8.0 | 18.0 | 0.00 | 0.00 | 0.00 | 82 | 1020.1 |
| 20260507162504 | 62 | 346 | 8.0 | 18.0 | 0.00 | 0.00 | 0.00 | 82 | 1019.8 |
| 20260507162004 | 62 | 350 | 8.0 | 19.0 | 0.00 | 0.00 | 0.00 | 83 | 1019.9 |
| 20260507161503 | 61 | 345 | 8.0 | 19.0 | 0.00 | 0.00 | 0.00 | 83 | 1019.5 |
| 20260507161004 | 61 | 337 | 8.0 | 19.0 | 0.00 | 0.00 | 0.00 | 83 | 1020.0 |
| 20260507160503 | 61 | 342 | 10.0 | 26.0 | 0.00 | 0.00 | 0.00 | 83 | 1020.2 |
| 20260507160004 | 61 | 358 | 8.0 | 26.0 | 0.00 | 0.00 | 0.00 | 83 | 1019.5 |
| 20260507155504 | 61 | 5 | 7.0 | 17.0 | 0.00 | 0.00 | 0.00 | 83 | 1019.1 |
| 20260507155003 | 61 | 353 | 6.0 | 14.0 | 0.00 | 0.00 | 0.00 | 83 | 1019.6 |
| 20260507154504 | 61 | 348 | 8.0 | 18.0 | 0.00 | 0.00 | 0.00 | 84 | 1019.9 |
| 20260507154004 | 61 | 351 | 8.0 | 18.0 | 0.00 | 0.00 | 0.00 | 84 | 1019.7 |
| 20260507153504 | 61 | 355 | 7.0 | 18.0 | 0.00 | 0.00 | 0.00 | 84 | 1019.6 |
| 20260507153003 | 61 | 355 | 8.0 | 20.0 | 0.00 | 0.00 | 0.00 | 84 | 1019.9 |
| 20260507152504 | 61 | 357 | 10.0 | 20.0 | 0.00 | 0.00 | 0.00 | 84 | 1020.1 |
| 20260507152003 | 61 | 354 | 8.0 | 18.0 | 0.00 | 0.00 | 0.00 | 84 | 1020.1 |
| 20260507151504 | 61 | 350 | 7.0 | 16.0 | 0.00 | 0.00 | 0.00 | 84 | 1020.1 |
| 20260507151004 | 61 | 349 | 7.0 | 22.0 | 0.00 | 0.00 | 0.00 | 84 | 1020.0 |
| 20260507150504 | 61 | 345 | 8.0 | 22.0 | 0.00 | 0.00 | 0.00 | 84 | 1020.0 |
| 20260507150004 | 61 | 345 | 8.0 | 14.0 | 0.00 | 0.00 | 0.00 | 85 | 1019.9 |
| 20260507145503 | 61 | 343 | 7.0 | 22.0 | 0.00 | 0.00 | 0.00 | 85 | 1020.0 |
| 20260507145004 | 61 | 339 | 8.0 | 22.0 | 0.00 | 0.00 | 0.00 | 85 | 1020.0 |
| 20260507144503 | 60 | 334 | 7.0 | 19.0 | 0.00 | 0.00 | 0.00 | 85 | 1019.8 |
| 20260507144003 | 60 | 332 | 7.0 | 19.0 | 0.00 | 0.00 | 0.00 | 85 | 1019.6 |
| 20260507143503 | 60 | 335 | 8.0 | 19.0 | 0.00 | 0.00 | 0.00 | 85 | 1019.7 |
| 20260507143003 | 60 | 336 | 10.0 | 19.0 | 0.00 | 0.00 | 0.00 | 85 | 1019.6 |
| 20260507142504 | 60 | 338 | 8.0 | 16.0 | 0.00 | 0.00 | 0.00 | 86 | 1019.8 |
| 20260507142004 | 60 | 337 | 7.0 | 14.0 | 0.00 | 0.00 | 0.00 | 86 | 1019.8 |
| 20260507141503 | 60 | 335 | 5.0 | 13.0 | 0.00 | 0.00 | 0.00 | 86 | 1019.9 |
| 20260507141003 | 60 | 336 | 6.0 | 14.0 | 0.00 | 0.00 | 0.00 | 86 | 1020.2 |
| 20260507140503 | 60 | 342 | 7.0 | 14.0 | 0.00 | 0.00 | 0.00 | 86 | 1020.1 |
| 20260507140025 | 60 | 344 | 7.0 | 14.0 | 0.00 | 0.00 | 0.00 | 86 | 1019.3 |
| 20260507135504 | 60 | 341 | 6.0 | 12.0 | 0.00 | 0.00 | 0.00 | 86 | 1019.4 |
| 20260507135003 | 60 | 344 | 6.0 | 12.0 | 0.00 | 0.00 | 0.00 | 86 | 1019.6 |
| 20260507134503 | 60 | 348 | 6.0 | 12.0 | 0.00 | 0.00 | 0.00 | 86 | 1019.7 |
| 20260507134003 | 60 | 349 | 6.0 | 13.0 | 0.00 | 0.00 | 0.00 | 86 | 1019.5 |
| 20260507133503 | 60 | 354 | 6.0 | 13.0 | 0.00 | 0.00 | 0.00 | 86 | 1019.4 |
| 20260507133004 | 60 | 355 | 6.0 | 14.0 | 0.00 | 0.00 | 0.00 | 86 | 1019.2 |
| 20260507132504 | 60 | 350 | 7.0 | 14.0 | 0.00 | 0.00 | 0.00 | 86 | 1019.2 |
| 20260507132003 | 60 | 344 | 6.0 | 13.0 | 0.00 | 0.00 | 0.00 | 86 | 1019.1 |
| 20260507131503 | 60 | 346 | 6.0 | 13.0 | 0.00 | 0.00 | 0.00 | 86 | 1018.9 |
| 20260507131003 | 60 | 349 | 8.0 | 16.0 | 0.00 | 0.00 | 0.00 | 86 | 1018.6 |
| 20260507130503 | 60 | 344 | 8.0 | 17.0 | 0.00 | 0.00 | 0.00 | 86 | 1018.6 |
| 20260507130004 | 60 | 342 | 7.0 | 17.0 | 0.00 | 0.00 | 0.00 | 86 | 1018.8 |
| 20260507125503 | 60 | 346 | 6.0 | 14.0 | 0.00 | 0.00 | 0.00 | 86 | 1018.8 |
| 20260507125003 | 60 | 341 | 6.0 | 13.0 | 0.00 | 0.00 | 0.00 | 86 | 1019.1 |
| 20260507124503 | 60 | 342 | 8.0 | 19.0 | 0.00 | 0.00 | 0.00 | 86 | 1018.9 |
| 20260507124003 | 60 | 344 | 10.0 | 19.0 | 0.00 | 0.00 | 0.00 | 86 | 1018.7 |
| 20260507123503 | 60 | 342 | 8.0 | 18.0 | 0.00 | 0.00 | 0.00 | 86 | 1018.7 |
| 20260507123004 | 60 | 340 | 7.0 | 16.0 | 0.00 | 0.00 | 0.00 | 86 | 1018.8 |
| 20260507122503 | 60 | 343 | 8.0 | 23.0 | 0.00 | 0.00 | 0.00 | 86 | 1018.8 |
| 20260507122003 | 60 | 344 | 10.0 | 23.0 | 0.00 | 0.00 | 0.00 | 86 | 1018.6 |
| 20260507121504 | 60 | 340 | 8.0 | 23.0 | 0.00 | 0.00 | 0.00 | 86 | 1018.6 |
| 20260507121003 | 60 | 338 | 7.0 | 16.0 | 0.00 | 0.00 | 0.00 | 86 | 1018.6 |
| 20260507120503 | 60 | 345 | 7.0 | 14.0 | 0.00 | 0.00 | 0.00 | 86 | 1018.5 |
| 20260507120004 | 60 | 351 | 8.0 | 18.0 | 0.00 | 0.00 | 0.00 | 86 | 1018.1 |
| 20260507115503 | 60 | 342 | 7.0 | 18.0 | 0.00 | 0.00 | 0.00 | 86 | 1018.1 |
| 20260507115003 | 60 | 335 | 7.0 | 18.0 | 0.00 | 0.00 | 0.00 | 86 | 1018.0 |
| 20260507114504 | 60 | 341 | 7.0 | 13.0 | 0.00 | 0.00 | 0.00 | 85 | 1018.0 |
| 20260507114003 | 60 | 344 | 8.0 | 16.0 | 0.00 | 0.00 | 0.00 | 85 | 1017.9 |
| 20260507113503 | 60 | 345 | 10.0 | 18.0 | 0.00 | 0.00 | 0.00 | 85 | 1017.8 |
| 20260507113024 | 60 | 351 | 10.0 | 19.0 | 0.00 | 0.00 | 0.00 | 85 | 1017.8 |
| 20260507112503 | 60 | 357 | 8.0 | 19.0 | 0.00 | 0.00 | 0.00 | 85 | 1018.2 |
| 20260507112003 | 60 | 357 | 7.0 | 14.0 | 0.00 | 0.00 | 0.00 | 85 | 1018.2 |
| 20260507111504 | 60 | 353 | 7.0 | 17.0 | 0.00 | 0.00 | 0.00 | 85 | 1018.0 |
| 20260507111003 | 60 | 348 | 7.0 | 17.0 | 0.00 | 0.00 | 0.00 | 85 | 1017.9 |
| 20260507110525 | 61 | 349 | 7.0 | 17.0 | 0.00 | 0.00 | 0.00 | 85 | 1018.1 |
| 20260507110003 | 61 | 338 | 7.0 | 17.0 | 0.00 | 0.00 | 0.00 | 85 | 1018.0 |
| 20260507105503 | 61 | 335 | 6.0 | 14.0 | 0.00 | 0.00 | 0.00 | 85 | 1017.9 |
| 20260507105024 | 61 | 348 | 6.0 | 16.0 | 0.00 | 0.00 | 0.00 | 85 | 1017.8 |
| 20260507104524 | 61 | 348 | 8.0 | 20.0 | 0.00 | 0.00 | 0.00 | 85 | 1017.8 |
| 20260507104003 | 61 | 346 | 8.0 | 20.0 | 0.00 | 0.00 | 0.00 | 85 | 1017.9 |
| 20260507103503 | 61 | 345 | 8.0 | 18.0 | 0.00 | 0.00 | 0.00 | 84 | 1017.6 |
| 20260507103003 | 61 | 346 | 8.0 | 18.0 | 0.00 | 0.00 | 0.00 | 84 | 1017.5 |
| 20260507102503 | 61 | 353 | 7.0 | 16.0 | 0.00 | 0.00 | 0.00 | 84 | 1017.6 |
| 20260507102024 | 61 | 352 | 8.0 | 14.0 | 0.00 | 0.00 | 0.00 | 84 | 1017.3 |
| 20260507101503 | 61 | 344 | 10.0 | 16.0 | 0.00 | 0.00 | 0.00 | 84 | 1017.2 |
| 20260507101024 | 61 | 344 | 8.0 | 16.0 | 0.00 | 0.00 | 0.00 | 83 | 1017.3 |
| 20260507100503 | 61 | 345 | 6.0 | 14.0 | 0.00 | 0.00 | 0.00 | 83 | 1017.4 |
| 20260507100003 | 61 | 335 | 6.0 | 14.0 | 0.00 | 0.00 | 0.00 | 83 | 1017.2 |
| 20260507095503 | 61 | 336 | 7.0 | 14.0 | 0.00 | 0.00 | 0.00 | 83 | 1017.4 |
| 20260507095003 | 62 | 345 | 6.0 | 14.0 | 0.00 | 0.00 | 0.00 | 83 | 1017.1 |
| 20260507094503 | 62 | 345 | 5.0 | 14.0 | 0.00 | 0.00 | 0.00 | 83 | 1017.0 |
| 20260507094003 | 62 | 341 | 5.0 | 10.0 | 0.00 | 0.00 | 0.00 | 82 | 1017.5 |
| 20260507093525 | 62 | 337 | 5.0 | 16.0 | 0.00 | 0.00 | 0.00 | 82 | 1017.3 |
| 20260507093024 | 62 | 336 | 6.0 | 16.0 | 0.00 | 0.00 | 0.00 | 83 | 1017.1 |
| 20260507092503 | 62 | 342 | 7.0 | 14.0 | 0.00 | 0.00 | 0.00 | 82 | 1017.1 |
| 20260507092024 | 62 | 345 | 7.0 | 14.0 | 0.00 | 0.00 | 0.00 | 82 | 1016.8 |
| 20260507091503 | 62 | 345 | 5.0 | 13.0 | 0.00 | 0.00 | 0.00 | 82 | 1016.8 |
| 20260507091003 | 62 | 343 | 6.0 | 12.0 | 0.00 | 0.00 | 0.00 | 82 | 1017.0 |
| 20260507090503 | 62 | 338 | 6.0 | 12.0 | 0.00 | 0.00 | 0.00 | 82 | 1017.0 |
| 20260507090024 | 62 | 338 | 5.0 | 10.0 | 0.00 | 0.00 | 0.00 | 82 | 1016.8 |
| 20260507085503 | 62 | 345 | 5.0 | 10.0 | 0.00 | 0.00 | 0.00 | 82 | 1016.8 |
| 20260507085024 | 62 | 348 | 5.0 | 10.0 | 0.00 | 0.00 | 0.00 | 82 | 1016.8 |
| 20260507084503 | 62 | 351 | 5.0 | 11.0 | 0.00 | 0.00 | 0.00 | 82 | 1016.8 |
| 20260507084024 | 62 | 357 | 5.0 | 11.0 | 0.00 | 0.00 | 0.00 | 82 | 1016.7 |
| 20260507083503 | 62 | 2 | 5.0 | 10.0 | 0.00 | 0.00 | 0.00 | 81 | 1016.5 |
| 20260507083004 | 62 | 356 | 4.0 | 12.0 | 0.00 | 0.00 | 0.00 | 81 | 1016.7 |
| 20260507082504 | 62 | 345 | 4.0 | 12.0 | 0.00 | 0.00 | 0.00 | 81 | 1016.9 |
| 20260507082004 | 62 | 3 | 2.0 | 10.0 | 0.00 | 0.00 | 0.00 | 81 | 1016.9 |
| 20260507081504 | 62 | 50 | 1.0 | 7.0 | 0.00 | 0.00 | 0.00 | 81 | 1017.0 |
| 20260507081004 | 62 | 52 | 1.0 | 7.0 | 0.00 | 0.00 | 0.00 | 81 | 1016.7 |
| 20260507080504 | 62 | 20 | 2.0 | 7.0 | 0.00 | 0.00 | 0.00 | 81 | 1016.5 |
| 20260507080004 | 62 | 6 | 2.0 | 10.0 | 0.00 | 0.00 | 0.00 | 81 | 1016.4 |
| 20260507075504 | 62 | 10 | 4.0 | 10.0 | 0.00 | 0.00 | 0.00 | 81 | 1016.5 |
| 20260507075004 | 62 | 20 | 5.0 | 11.0 | 0.00 | 0.00 | 0.00 | 81 | 1016.3 |
| 20260507074504 | 62 | 21 | 6.0 | 14.0 | 0.00 | 0.00 | 0.00 | 80 | 1016.6 |
| 20260507074025 | 62 | 19 | 6.0 | 14.0 | 0.00 | 0.00 | 0.00 | 80 | 1016.4 |
| 20260507073504 | 62 | 23 | 6.0 | 13.0 | 0.00 | 0.00 | 0.00 | 80 | 1016.2 |
| 20260507073004 | 62 | 18 | 6.0 | 13.0 | 0.00 | 0.00 | 0.00 | 80 | 1016.4 |
| 20260507072504 | 62 | 6 | 5.0 | 11.0 | 0.00 | 0.00 | 0.00 | 80 | 1016.4 |
| 20260507072025 | 62 | 1 | 6.0 | 13.0 | 0.00 | 0.00 | 0.00 | 80 | 1016.5 |
| 20260507071504 | 62 | 359 | 6.0 | 13.0 | 0.00 | 0.00 | 0.00 | 80 | 1016.6 |
| 20260507071004 | 62 | 5 | 5.0 | 8.0 | 0.00 | 0.00 | 0.00 | 80 | 1016.3 |
| 20260507070504 | 62 | 14 | 4.0 | 8.0 | 0.00 | 0.00 | 0.00 | 80 | 1016.3 |
| 20260507070008 | 63 | 13 | 4.0 | 7.0 | 0.00 | 0.00 | 0.00 | 80 | 1016.3 |
| 20260507065525 | 63 | 6 | 4.0 | 8.0 | 0.00 | 0.00 | 0.00 | 80 | 1016.4 |
| 20260507065004 | 63 | 360 | 4.0 | 8.0 | 0.00 | 0.00 | 0.00 | 80 | 1016.7 |
| 20260507064525 | 63 | 355 | 2.0 | 6.0 | 0.00 | 0.00 | 0.00 | 80 | 1016.4 |
| 20260507064004 | 63 | 355 | 2.0 | 7.0 | 0.00 | 0.00 | 0.00 | 80 | 1016.6 |
| 20260507063504 | 63 | 359 | 4.0 | 10.0 | 0.00 | 0.00 | 0.00 | 80 | 1016.8 |
| 20260507063004 | 63 | 358 | 5.0 | 11.0 | 0.00 | 0.00 | 0.00 | 80 | 1016.6 |
| 20260507062504 | 63 | 5 | 6.0 | 13.0 | 0.00 | 0.00 | 0.00 | 80 | 1016.4 |
| 20260507062004 | 63 | 15 | 6.0 | 13.0 | 0.00 | 0.00 | 0.00 | 80 | 1016.1 |
| 20260507061504 | 63 | 6 | 6.0 | 13.0 | 0.00 | 0.00 | 0.00 | 80 | 1015.4 |
| 20260507061004 | 63 | 358 | 6.0 | 13.0 | 0.00 | 0.00 | 0.00 | 80 | 1015.9 |
| 20260507060503 | 63 | 1 | 6.0 | 12.0 | 0.00 | 0.00 | 0.00 | 80 | 1016.3 |
| 20260507060004 | 63 | 357 | 5.0 | 11.0 | 0.00 | 0.00 | 0.00 | 80 | 1016.2 |
| 20260507055524 | 63 | 358 | 6.0 | 12.0 | 0.00 | 0.00 | 0.00 | 80 | 1016.2 |
| 20260507055004 | 63 | 3 | 7.0 | 12.0 | 0.00 | 0.00 | 0.00 | 80 | 1015.7 |
| 20260507054504 | 63 | 4 | 6.0 | 14.0 | 0.00 | 0.00 | 0.00 | 80 | 1016.1 |
| 20260507054004 | 63 | 356 | 6.0 | 14.0 | 0.00 | 0.00 | 0.00 | 81 | 1016.2 |
| 20260507053525 | 63 | 350 | 6.0 | 11.0 | 0.00 | 0.00 | 0.00 | 81 | 1016.3 |
| 20260507053004 | 63 | 355 | 6.0 | 11.0 | 0.00 | 0.00 | 0.00 | 81 | 1016.3 |
| 20260507052504 | 63 | 359 | 6.0 | 13.0 | 0.00 | 0.00 | 0.00 | 81 | 1016.1 |
| 20260507052004 | 63 | 353 | 5.0 | 13.0 | 0.00 | 0.00 | 0.00 | 81 | 1016.3 |
| 20260507051503 | 63 | 354 | 6.0 | 11.0 | 0.00 | 0.00 | 0.00 | 81 | 1016.2 |
| 20260507051004 | 63 | 2 | 6.0 | 11.0 | 0.00 | 0.00 | 0.00 | 81 | 1015.9 |
| 20260507050504 | 63 | 8 | 6.0 | 13.0 | 0.00 | 0.00 | 0.00 | 81 | 1015.9 |
| 20260507050005 | 63 | 8 | 6.0 | 13.0 | 0.00 | 0.00 | 0.00 | 81 | 1016.0 |
| 20260507045524 | 63 | 356 | 6.0 | 12.0 | 0.00 | 0.00 | 0.00 | 81 | 1016.0 |
| 20260507045004 | 63 | 350 | 6.0 | 12.0 | 0.00 | 0.00 | 0.00 | 81 | 1016.1 |
| 20260507044525 | 63 | 355 | 5.0 | 10.0 | 0.00 | 0.00 | 0.00 | 81 | 1016.1 |
| 20260507044004 | 63 | 350 | 5.0 | 10.0 | 0.00 | 0.00 | 0.00 | 81 | 1016.1 |
| 20260507043504 | 63 | 355 | 4.0 | 10.0 | 0.00 | 0.00 | 0.00 | 81 | 1015.9 |
| 20260507043004 | 64 | 356 | 5.0 | 12.0 | 0.00 | 0.00 | 0.00 | 81 | 1016.1 |
| 20260507042504 | 64 | 349 | 6.0 | 12.0 | 0.00 | 0.00 | 0.00 | 81 | 1016.1 |
| 20260507042004 | 64 | 345 | 6.0 | 12.0 | 0.00 | 0.00 | 0.00 | 81 | 1016.2 |
| 20260507041504 | 64 | 344 | 6.0 | 14.0 | 0.00 | 0.00 | 0.00 | 81 | 1016.1 |
| 20260507041004 | 64 | 347 | 6.0 | 14.0 | 0.00 | 0.00 | 0.00 | 81 | 1016.0 |
| 20260507040504 | 64 | 354 | 6.0 | 12.0 | 0.00 | 0.00 | 0.00 | 81 | 1015.7 |
| 20260507040004 | 64 | 352 | 7.0 | 14.0 | 0.00 | 0.00 | 0.00 | 81 | 1015.8 |
| 20260507035525 | 64 | 352 | 7.0 | 14.0 | 0.00 | 0.00 | 0.00 | 81 | 1015.7 |
| 20260507035003 | 64 | 355 | 7.0 | 13.0 | 0.00 | 0.00 | 0.00 | 81 | 1015.8 |
| 20260507034504 | 64 | 350 | 7.0 | 13.0 | 0.00 | 0.00 | 0.00 | 81 | 1016.1 |
| 20260507034004 | 64 | 345 | 7.0 | 13.0 | 0.00 | 0.00 | 0.00 | 81 | 1016.0 |
| 20260507033525 | 64 | 346 | 7.0 | 13.0 | 0.00 | 0.00 | 0.00 | 81 | 1015.6 |
| 20260507033025 | 64 | 348 | 7.0 | 14.0 | 0.00 | 0.00 | 0.00 | 81 | 1015.6 |
| 20260507032504 | 64 | 348 | 6.0 | 14.0 | 0.00 | 0.00 | 0.00 | 81 | 1015.7 |
| 20260507032024 | 64 | 351 | 7.0 | 17.0 | 0.00 | 0.00 | 0.00 | 81 | 1015.8 |
| 20260507031504 | 64 | 347 | 7.0 | 17.0 | 0.00 | 0.00 | 0.00 | 81 | 1015.6 |
| 20260507031004 | 64 | 339 | 6.0 | 16.0 | 0.00 | 0.00 | 0.00 | 81 | 1015.6 |
| 20260507030504 | 64 | 337 | 7.0 | 17.0 | 0.00 | 0.00 | 0.00 | 81 | 1015.7 |
| 20260507030003 | 64 | 329 | 6.0 | 17.0 | 0.00 | 0.00 | 0.00 | 81 | 1015.7 |
| 20260507025503 | 64 | 329 | 5.0 | 10.0 | 0.00 | 0.00 | 0.00 | 81 | 1015.5 |
| 20260507025025 | 64 | 341 | 5.0 | 10.0 | 0.00 | 0.00 | 0.00 | 81 | 1015.3 |
| 20260507024503 | 64 | 347 | 6.0 | 11.0 | 0.00 | 0.00 | 0.00 | 81 | 1015.2 |
| 20260507024025 | 64 | 340 | 6.0 | 13.0 | 0.00 | 0.00 | 0.00 | 81 | 1015.1 |
| 20260507023504 | 64 | 338 | 6.0 | 13.0 | 0.00 | 0.00 | 0.00 | 81 | 1015.2 |
| 20260507023004 | 64 | 345 | 5.0 | 10.0 | 0.00 | 0.00 | 0.00 | 81 | 1015.4 |
| 20260507022504 | 64 | 331 | 5.0 | 11.0 | 0.00 | 0.00 | 0.00 | 80 | 1015.3 |
| 20260507022003 | 64 | 321 | 5.0 | 11.0 | 0.00 | 0.00 | 0.00 | 80 | 1015.2 |
| 20260507021504 | 64 | 337 | 4.0 | 11.0 | 0.00 | 0.00 | 0.00 | 80 | 1015.1 |
| 20260507021025 | 64 | 350 | 5.0 | 11.0 | 0.00 | 0.00 | 0.00 | 80 | 1014.8 |
| 20260507020524 | 64 | 350 | 5.0 | 11.0 | 0.00 | 0.00 | 0.00 | 80 | 1014.4 |
| 20260507020004 | 64 | 337 | 5.0 | 11.0 | 0.00 | 0.00 | 0.00 | 80 | 1014.5 |
| 20260507015503 | 64 | 324 | 5.0 | 10.0 | 0.00 | 0.00 | 0.00 | 80 | 1014.6 |
| 20260507015004 | 64 | 327 | 5.0 | 10.0 | 0.00 | 0.00 | 0.00 | 80 | 1014.6 |
| 20260507014524 | 64 | 341 | 5.0 | 12.0 | 0.00 | 0.00 | 0.00 | 80 | 1014.6 |
| 20260507014003 | 64 | 344 | 6.0 | 17.0 | 0.00 | 0.00 | 0.00 | 80 | 1014.4 |
| 20260507013504 | 65 | 339 | 6.0 | 17.0 | 0.00 | 0.00 | 0.00 | 80 | 1014.2 |
| 20260507013003 | 65 | 333 | 6.0 | 14.0 | 0.00 | 0.00 | 0.00 | 80 | 1014.2 |
| 20260507012503 | 65 | 331 | 6.0 | 14.0 | 0.00 | 0.00 | 0.00 | 80 | 1014.0 |
| 20260507012004 | 65 | 333 | 5.0 | 14.0 | 0.00 | 0.00 | 0.00 | 79 | 1014.1 |
| 20260507011503 | 65 | 334 | 6.0 | 13.0 | 0.00 | 0.00 | 0.00 | 79 | 1014.0 |
| 20260507011003 | 65 | 335 | 6.0 | 13.0 | 0.00 | 0.00 | 0.00 | 79 | 1014.0 |
| 20260507010503 | 65 | 331 | 6.0 | 13.0 | 0.00 | 0.00 | 0.00 | 79 | 1013.9 |
| 20260507010004 | 65 | 334 | 7.0 | 14.0 | 0.00 | 0.00 | 0.00 | 79 | 1014.0 |
| 20260507005503 | 65 | 341 | 7.0 | 18.0 | 0.00 | 0.00 | 0.00 | 79 | 1013.6 |
| 20260507005004 | 65 | 336 | 7.0 | 18.0 | 0.00 | 0.00 | 0.00 | 78 | 1013.8 |
| 20260507004503 | 65 | 329 | 6.0 | 14.0 | 0.00 | 0.00 | 0.00 | 78 | 1013.5 |
| 20260507004025 | 65 | 331 | 6.0 | 13.0 | 0.00 | 0.00 | 0.00 | 78 | 1013.5 |
| 20260507003504 | 65 | 338 | 7.0 | 19.0 | 0.00 | 0.00 | 0.00 | 78 | 1013.4 |
| 20260507003003 | 65 | 343 | 8.0 | 19.0 | 0.00 | 0.00 | 0.00 | 78 | 1013.4 |
| 20260507002524 | 65 | 336 | 8.0 | 19.0 | 0.00 | 0.00 | 0.00 | 77 | 1013.4 |
| 20260507002003 | 66 | 333 | 8.0 | 18.0 | 0.00 | 0.00 | 0.00 | 77 | 1013.3 |
| 20260507001503 | 66 | 338 | 7.0 | 17.0 | 0.00 | 0.00 | 0.00 | 77 | 1013.5 |
| 20260507001003 | 66 | 341 | 7.0 | 17.0 | 0.00 | 0.00 | 0.00 | 77 | 1013.3 |
| 20260507000504 | 66 | 343 | 7.0 | 14.0 | 0.00 | 0.00 | 0.00 | 77 | 1013.1 |
| 20260507000003 | 66 | 338 | 6.0 | 14.0 | 0.00 | 0.00 | 0.00 | 77 | 1013.3 |
| 20260506235503 | 66 | 344 | 8.0 | 17.0 | 0.00 | 0.00 | 0.00 | 77 | 1013.2 |
| 20260506235003 | 66 | 345 | 7.0 | 17.0 | 0.00 | 0.00 | 0.00 | 76 | 1013.1 |
| 20260506234504 | 66 | 337 | 7.0 | 13.0 | 0.00 | 0.00 | 0.00 | 76 | 1013.1 |
| 20260506234003 | 66 | 339 | 8.0 | 16.0 | 0.00 | 0.00 | 0.00 | 76 | 1013.2 |
| 20260506233524 | 66 | 338 | 8.0 | 19.0 | 0.00 | 0.00 | 0.00 | 76 | 1013.1 |
| 20260506233025 | 66 | 336 | 8.0 | 19.0 | 0.00 | 0.00 | 0.00 | 76 | 1013.0 |
| 20260506232503 | 67 | 331 | 8.0 | 16.0 | 0.00 | 0.00 | 0.00 | 74 | 1013.0 |
| 20260506232003 | 67 | 335 | 7.0 | 17.0 | 0.00 | 0.00 | 0.00 | 74 | 1012.9 |
| 20260506231503 | 67 | 335 | 7.0 | 17.0 | 0.00 | 0.00 | 0.00 | 74 | 1012.8 |
| 20260506231004 | 67 | 327 | 6.0 | 16.0 | 0.00 | 0.00 | 0.00 | 74 | 1012.8 |
| 20260506230503 | 67 | 327 | 7.0 | 16.0 | 0.00 | 0.00 | 0.00 | 74 | 1012.9 |
| 20260506230003 | 68 | 329 | 8.0 | 16.0 | 0.00 | 0.00 | 0.00 | 73 | 1012.8 |
| 20260506225524 | 68 | 331 | 8.0 | 20.0 | 0.00 | 0.00 | 0.00 | 74 | 1012.9 |
| 20260506225004 | 68 | 329 | 10.0 | 20.0 | 0.00 | 0.00 | 0.00 | 73 | 1012.9 |
| 20260506224503 | 68 | 334 | 10.0 | 19.0 | 0.00 | 0.00 | 0.00 | 72 | 1012.8 |
| 20260506224003 | 68 | 337 | 11.0 | 18.0 | 0.00 | 0.00 | 0.00 | 71 | 1012.7 |
| 20260506223525 | 69 | 335 | 11.0 | 22.0 | 0.00 | 0.00 | 0.00 | 70 | 1012.8 |
| 20260506223003 | 70 | 338 | 8.0 | 22.0 | 0.00 | 0.00 | 0.00 | 70 | 1012.7 |
| 20260506222503 | 70 | 341 | 8.0 | 19.0 | 0.00 | 0.00 | 0.00 | 69 | 1012.5 |
| 20260506222003 | 71 | 336 | 8.0 | 19.0 | 0.00 | 0.00 | 0.00 | 69 | 1012.4 |
| 20260506221524 | 71 | 331 | 8.0 | 16.0 | 0.00 | 0.00 | 0.00 | 69 | 1012.4 |
| 20260506221003 | 72 | 342 | 10.0 | 24.0 | 0.00 | 0.00 | 0.00 | 68 | 1012.7 |
| 20260506220503 | 72 | 343 | 11.0 | 24.0 | 0.00 | 0.00 | 0.00 | 67 | 1012.5 |
| 20260506220003 | 73 | 338 | 11.0 | 19.0 | 0.00 | 0.00 | 0.00 | 66 | 1012.6 |
| 20260506215503 | 74 | 342 | 11.0 | 19.0 | 0.00 | 0.00 | 0.00 | 65 | 1012.5 |
| 20260506215024 | 75 | 343 | 11.0 | 19.0 | 0.00 | 0.00 | 0.00 | 63 | 1012.5 |
| 20260506214504 | 76 | 337 | 11.0 | 19.0 | 0.00 | 0.00 | 0.00 | 63 | 1012.4 |
| 20260506214003 | 76 | 336 | 10.0 | 18.0 | 0.00 | 0.00 | 0.00 | 63 | 1012.3 |
| 20260506213524 | 77 | 344 | 10.0 | 19.0 | 0.00 | 0.00 | 0.00 | 63 | 1012.2 |
| 20260506213003 | 77 | 341 | 10.0 | 19.0 | 0.00 | 0.00 | 0.00 | 63 | 1012.1 |
| 20260506212503 | 77 | 327 | 8.0 | 22.0 | 0.00 | 0.00 | 0.00 | 64 | 1012.0 |
| 20260506212003 | 78 | 322 | 10.0 | 22.0 | 0.00 | 0.00 | 0.00 | 63 | 1012.0 |
| 20260506211503 | 78 | 324 | 11.0 | 22.0 | 0.00 | 0.00 | 0.00 | 64 | 1012.0 |
| 20260506211003 | 78 | 330 | 11.0 | 22.0 | 0.00 | 0.00 | 0.00 | 64 | 1012.1 |
| 20260506210503 | 78 | 336 | 11.0 | 22.0 | 0.00 | 0.00 | 0.00 | 64 | 1012.1 |
| 20260506210003 | 79 | 344 | 8.0 | 20.0 | 0.00 | 0.00 | 0.00 | 64 | 1012.0 |
| 20260506205503 | 79 | 348 | 7.0 | 17.0 | 0.00 | 0.00 | 0.00 | 65 | 1012.0 |
| 20260506205003 | 79 | 338 | 8.0 | 16.0 | 0.00 | 0.00 | 0.00 | 66 | 1012.0 |
| 20260506204503 | 78 | 335 | 8.0 | 18.0 | 0.00 | 0.00 | 0.00 | 68 | 1012.1 |
| 20260506204003 | 78 | 331 | 8.0 | 19.0 | 0.00 | 0.00 | 0.00 | 68 | 1012.3 |
| 20260506203503 | 78 | 331 | 8.0 | 19.0 | 0.00 | 0.00 | 0.00 | 68 | 1012.3 |
| 20260506203024 | 77 | 336 | 10.0 | 19.0 | 0.00 | 0.00 | 0.00 | 69 | 1012.3 |
| 20260506202003 | 77 | 333 | 10.0 | 23.0 | 0.00 | 0.00 | 0.00 | 70 | 1012.3 |
| 20260506201524 | 77 | 329 | 10.0 | 19.0 | 0.00 | 0.00 | 0.00 | 71 | 1012.3 |
| 20260506201025 | 77 | 324 | 8.0 | 16.0 | 0.00 | 0.00 | 0.00 | 71 | 1012.2 |
| 20260506200539 | 77 | 322 | 8.0 | 17.0 | 0.00 | 0.00 | 0.00 | 70 | 1012.2 |